Location: Ferma
(41.9500°N, 44.5167°E)
Time: 11:02:23
(UTC+00:00)

Cosmos 1269 Rocket - Pass Details

Date: 31 May 2022
Orbit: 773 x 778 km, 74.1° (Epoch: 01 July)

Event Time Altitude Azimuth Distance (km) Brightness Sun altitude
Rises 21:18:33 0° 343° (NNW) 3,258 8.3 -25.9°
Reaches altitude 10° 21:20:58 10° 347° (NNW) 2,327 7.4 -25.9°
Maximum altitude 21:26:12 60° 67° (ENE) 883 4.3 -25.7°
Enters shadow 21:27:06 52° 110° (ESE) 958 4.3 -25.7°
